Regional Weather Roundup
Issued by NWS Newport/Morehead, NC

Current Version | Previous Version | Text Only | Print | Product List | Glossary On
Versions: 1 2 3 4 5 6 7 8 9 10 11 12 13 14 15 16 17 18 19 20 21 22 23 24 25 26 27 28 29 30 31 32 33 34 35 36 37 38 39 40 41 42 43 44 45 46 47 48 49 50
000
ASUS42 KMHX 250922
RWRMHX
WEATHER ROUNDUP FOR EASTERN NORTH CAROLINA
NATIONAL WEATHER SERVICE NEWPORT/MOREHEAD CITY NC
400 AM EST SUN JAN 25 2015

NOTE: "FAIR" INDICATES FEW OR NO CLOUDS BELOW 12,000 FEET
WITH NO SIGNIFICANT WEATHER AND/OR OBSTRUCTIONS TO VISIBILITY

NCZ015>017-031-032-045>047-102-103-251000-
NORTH COAST

CITY           SKY/WX    TMP DP  RH WIND       PRES   REMARKS
EDENTON        CLEAR     38  31  76 W8        29.84S
ELIZABETH CITY CLEAR     36  28  73 W9        29.82R
KITTY HAWK     SUNNY     40  31  69 W10G20    29.80R
MANTEO         CLEAR     39  30  70 W10G16    29.82S

$$

NCZ045>047-081-094-103-104-251000-
CENTRAL COAST

CITY           SKY/WX    TMP DP  RH WIND       PRES   REMARKS
FRISCO         CLEAR     42  31  64 NW12G21   29.84R
SWANQUARTER    NOT AVBL

$$

NCZ095-097-098-100-101-251000-
SOUTHERN COAST

CITY           SKY/WX    TMP DP  RH WIND       PRES   REMARKS
BEAUFORT       CLEAR     40  33  76 NW10      29.87S
CEDAR ISLAND   NOT AVBL
JACKSONVILLE   CLEAR     37  34  89 W6        29.88S
PINEY ISLAND     N/A    N/A N/A N/A MISG      29.86R
WILMINGTON     CLEAR     38  37  97 CALM      29.89F


$$

NCZ011>013-027>030-043-044-078>080-089-090>093-098-251000-
COASTAL PLAIN

CITY           SKY/WX    TMP DP  RH WIND       PRES   REMARKS
AHOSKIE        CLEAR     33  27  79 CALM      29.86R
CLINTON        CLEAR     31  31 100 CALM      29.91R
ELIZABETHTOWN  CLEAR     36  33  90 W3        29.90S
GOLDSBORO      CLEAR     34  33  97 SW6       29.86S
GREENVILLE     CLEAR     34  32  93 CALM      29.89S
HAVELOCK       CLEAR     37  32  82 W6        29.87F
KENANSVILLE    CLEAR     31  31  99 SW3       29.90R
KINSTON        CLEAR     34  29  84 SW5       29.89R
NEW BERN       CLEAR     39  31  72 W5        29.88S
RICHLANDS      CLEAR     32  28  86 CALM      29.89R
ROCKY MOUNT    CLEAR     35  27  72 W3        29.87R
WASHINGTON     CLEAR     35  29  79 CALM      29.86S
WHITEVILLE     CLEAR     36  34  94 CALM      29.90S

$$

AMZ130-135-150-152-154-156-158-170-250-252-270-ANZ085-086-088-633-658-670-251000-
MARINE OBSERVATIONS

STATION/POSITION TIME  TEMP    WIND        PRES    WAVE   SWELL
                       AIR SEA DIR/SP/G            HT/PER HT/PER
                 (UTC) (F)     (DEG/KT/KT) (MB)    (FT/S) (FT/S)
CHESAPEAKE LIGHT 0900   40     290/ 18/ 20 1009.3
64 E VA BEACH    0900   44 52  300/ 19/ 23 1007.5    7/ 6   5/11
DUCK             0900   40 43  280/ 15/ 18 1008.9
2 E DUCK         0900      43                N/A     3/11   2/11
10 NE DUCK       0900      45                N/A     4/11   2/11
OREGON INLET     0900   41 47  280/ 12/ 17 1009.7
13E OREGON INLT  0900      46                N/A     5/ 7   2/11
HATTERAS CG      0900   45 54  300/ 20/ 23 1010.8
DIAMOND BUOY     0900   49 71  290/ 23/ 29 1009.7    8/10   5/10
17 S OCRACOKE    NOT AVBL
CAPE LOOKOUT     0900   44     310/ 12/ 15 1011.1
BEAUFORT LAB     0900   41 51  320/  5/  7 1010.4
27 SE WRIGHTSVLE NOT AVBL
5 SE WRIGHTSVLE  0900   45 51  290/ 10/ 12 1012.1
225 S CAPE HAT   0804   63 72  300/ 17/ 21 1011.9   11/10   8/10
41 SE CHARLESTON 0900   52 69  310/ 21/ 27 1012.8    6/ 7   2/10

$$


USA.gov is the U.S. government's official web portal to all federal, state and local government web resources and services.